Content
SEND FEEDBACK

Daily
Averages
Monthly
Summary
India

LUCKNOW, INDIA


Home > Asia > India
Elevation: 400 feet     Latitude: 26 45N     Longitude: 080 52E

WEATHER
 
SELECT A DAY
Number of Records: 126,138;   Date Range: 7/2/96 - 7/11/14
 
SHARE

PRINT THIS DATA

[ ← Previous Day ]
WEATHER ALMANAC - MARCH 17, 2013
[ Next Day → ]
[ °C ]   °F
Weather ElementAverageHighLow
Temperature76.4 °F86 °F (2:00 pm)66 °F (5:30 am)
Dewpoint55.9 °F60.8 °F (12:00 pm)53 °F (2:30 am)
Humidity49.7 %68 % (6:00 am)33 % (2:30 pm)
Barometer29.95 in30.05 in (8:30 am)29.86 in (4:00 pm)
Wind Speed7.3 mph12.7 mph (10:30 am)
Weather ElementAverage
Visibility3 mi
Wind DirectionWNW (277.4 °)

Weather ElementTotal
Precipitation---
Cooling Degree Days11 (Base 65)
Growing Degree Days26 (Base 50)
Averaged from 38 records on March 17, 2013
WEATHER CONDITIONS BREAKOUT
WIND DIRECTION BREAKOUT
WEATHER BY HOUR - MARCH 17, 2013
[ °C ]   °F
Local TimeTemperatureDewpointHumidityBarometerVisibilityWind DirectionWind SpeedGust SpeedPrecipitationEventsConditions
1:00 AM73.4 °F53.6 °F50 %29.98 in2.2 miWest (280°)9.2 mphHaze
2:00 AM73.4 °F53.6 °F50 %29.95 in2.2 miWest (270°)6.9 mphHaze
2:30 AM72.0 °F53.0 °F41 %29.97 in2.0 miWNW (290°)9.2 mphHaze
3:00 AM71.6 °F53.6 °F53 %29.95 in2.2 miWNW (300°)9.2 mphHaze
4:00 AM68.0 °F53.6 °F60 %29.98 in2.2 miWest (260°)6.9 mphHaze
5:00 AM66.2 °F53.6 °F64 %29.98 in2.2 miWSW (250°)5.8 mphHaze
5:30 AM66.0 °F53.0 °F54 %30.00 in1.0 miWest (270°)4.6 mphHaze
5:30 AM66.2 °F53.6 °F64 %29.98 in2.2 miWest (270°)4.6 mphHaze
6:00 AM66.2 °F55.4 °F68 %29.98 in2.2 miWest (260°)3.5 mphHaze
7:00 AM66.2 °F55.4 °F68 %30.01 in2.2 miWest (270°)3.5 mphHaze
7:30 AM66.2 °F55.4 °F68 %30.01 in2.5 miWest (260°)4.6 mphMostly Cloudy
8:00 AM68.0 °F57.2 °F68 %30.04 in2.8 miWSW (250°)4.6 mphHaze
8:30 AM71.0 °F56.0 °F50 %30.05 in2.0 miWest (270°)6.9 mphHaze
8:30 AM69.8 °F55.4 °F60 %30.04 in2.8 miWest (270°)6.9 mphHaze
9:30 AM75.2 °F55.4 °F50 %30.04 in3.7 miWSW (250°)9.2 mphScattered Clouds
10:00 AM77.0 °F57.2 °F50 %30.04 in3.7 miWest (260°)11.5 mphScattered Clouds
10:30 AM77.0 °F59.0 °F54 %30.04 in3.7 miWest (260°)12.7 mphPartly Cloudy
11:00 AM80.6 °F59.0 °F48 %30.04 in3.7 miWest (280°)10.4 mphPartly Cloudy
11:30 AM80.6 °F59.0 °F48 %30.01 in3.7 miWNW (290°)8.1 mphPartly Cloudy
12:00 PM82.4 °F60.8 °F48 %30.01 in3.7 miWNW (290°)6.9 mphPartly Cloudy
12:30 PM84.2 °F59.0 °F42 %29.98 in3.7 miWest (270°)5.8 mph
1:00 PM84.2 °F59.0 °F42 %29.95 in3.7 miWest (270°)5.8 mph
1:30 PM84.2 °F57.2 °F40 %29.95 in3.7 miWNW (290°)6.9 mph
2:00 PM86.0 °F59.0 °F40 %29.95 in3.7 miWNW (290°)9.2 mph
2:30 PM86.0 °F53.6 °F33 %29.92 in3.7 miNW (320°)9.2 mph
3:00 PM86.0 °F53.6 °F33 %29.89 in3.7 miNNW (340°)11.5 mph
3:30 PM86.0 °F53.6 °F33 %29.89 in3.7 miNNW (340°)11.5 mph
4:00 PM86.0 °F53.6 °F33 %29.86 in3.7 miWNW (290°)9.2 mph
4:30 PM86.0 °F53.6 °F33 %29.86 in3.7 miWest (270°)11.5 mph
5:00 PM86.0 °F55.4 °F35 %29.86 in3.7 miWest (280°)9.2 mph
5:30 PM84.2 °F55.4 °F37 %29.86 in3.7 miWest (280°)9.2 mph
6:00 PM82.4 °F57.2 °F42 %29.86 in3.7 miWest (270°)5.8 mph
6:30 PM80.6 °F57.2 °F45 %29.86 in3.7 miWest (280°)6.9 mph
8:00 PM75.2 °F59.0 °F57 %29.89 in3.1 miWest (270°)3.5 mphHaze
8:30 PM75.2 °F57.2 °F53 %29.89 in3.1 miWest (270°)3.5 mphHaze
9:00 PM73.4 °F57.2 °F57 %29.89 in3.1 miWest (270°)3.5 mphHaze
10:00 PM71.6 °F55.4 °F57 %29.89 in2.5 miWest (270°)5.8 mphHaze
11:00 PM69.8 °F55.4 °F60 %29.89 in2.5 miWest (270°)5.8 mphHaze
Hourly data recorded from VILK, located miles away from Lucknow, India







STORIES FROM OUR PARTNERS